Probability
0 3 32 74 74 77 84 84 87 90 90 87 77 84 87 84 81 74 71 71 71 65 65 58 45 39 29 16 16 13 13 3 0 0 0 0 0 0 0 0 0 0 0
0 3 39 71 71 77 74 77 84 87 90 81 84 84 87 87 87 74 74 71 65 61 58 55 45 35 26 16 16 16 10 0 3 3 0 0 0 0 0 0 0 0 0
0 6 32 61 71 71 77 81 84 77 77 77 84 77 81 84 81 77 68 61 58 58 55 52 42 26 26 23 19 13 6 0 3 0 0 0 0 0 0 0 0 0 0
0 10 26 58 61 68 65 68 74 74 71 71 74 77 81 81 81 81 61 58 58 55 52 42 35 29 23 19 16 10 3 3 0 0 0 0 0 0 0 0 0 0 0
0 10 23 42 52 65 65 65 61 65 61 65 68 74 74 77 77 77 65 58 55 55 52 39 29 26 23 19 10 6 3 0 0 0 0 0 0 0 0 0 0 0 0
0 10 19 29 39 45 52 52 58 55 58 58 65 65 68 74 74 74 68 61 61 52 42 29 29 26 19 16 10 6 3 0 0 0 0 0 0 0 0 0 0 0 0
0 6 13 23 29 39 39 42 48 55 55 55 58 61 61 61 61 68 55 61 58 45 35 29 26 23 16 10 10 3 0 0 0 0 0 0 0 0 0 0 0 0 0
3 6 13 23 23 29 32 35 42 42 52 52 52 55 61 52 52 45 52 55 55 45 32 29 26 23 13 10 6 3 0 0 0 0 0 0 0 0 0 0 0 0 0
3 6 10 13 19 23 23 29 35 39 39 48 48 52 52 48 48 35 42 39 42 42 32 26 26 19 13 10 3 0 0 0 0 0 0 0 0 0 0 0 0 0 0
3 6 10 10 13 19 16 19 23 23 26 32 35 29 23 26 29 32 29 26 35 29 29 23 23 19 6 6 3 0 0 0 0 0 0 0 0 0 0 0 0 0 0
3 3 6 10 10 13 16 16 13 16 16 19 19 16 16 16 16 13 13 19 23 16 10 19 16 10 0 0 0 0 0 0 0 0 0 0 0 0 0 0 0 0 0
3 3 6 6 10 6 13 10 6 10 10 3 3 3 6 6 3 6 0 3 10 6 6 3 3 0 0 0 0 0 0 0 0 0 0 0 0 0 0 0 0 0 0
3 3 6 6 6 3 6 3 6 6 6 3 3 3 0 0 0 3 0 0 0 0 0 0 0 0 0 0 0 0 0 0 0 0 0 0 0 0 0 0 0 0 0
3 3 6 6 3 3 3 3 6 3 3 6 3 0 0 0 0 0 0 0 0 0 0 0 0 0 0 0 0 0 0 0 0 0 0 0 0 0 0 0 0 0 0
3 3 3 6 3 3 3 3 3 3 3 6 3 0 0 0 3 0 0 0 0 0 0 0 0 0 0 0 0 0 0 0 0 0 0 0 0 0 0 0 0 0 0
0 3 3 6 3 0 0 3 3 0 3 3 3 0 0 0 0 0 0 0 0 0 0 0 0 0 0 0 0 0 0 0 0 0 0 0 0 0 0 0 0 0 0
0 3 3 3 3 0 0 3 0 0 0 0 0 0 0 0 0 0 0 0 0 0 0 0 0 0 0 0 0 0 0 0 0 0 0 0 0 0 0 0 0 0 0
0 0 3 3 0 0 0 3 0 0 0 0 0 0 0 0 0 0 0 0 0 0 0 0 0 0 0 0 0 0 0 0 0 0 0 0 0 0 0 0 0 0 0
0 0 0 0 0 0 0 0 0 0 0 0 0 0 0 0 0 0 0 0 0 0 0 0 0 0 0 0 0 0 0 0 0 0 0 0 0 0 0 0 0 0 0
0 0 0 0 0 0 0 0 0 0 0 0 0 0 0 0 0 0 0 0 0 0 0 0 0 0 0 0 0 0 0 0 0 0 0 0 0 0 0 0 0 0 0
0 0 0 0 0 0 0 0 0 0 0 0 0 0 0 0 0 0 0 0 0 0 0 0 0 0 0 0 0 0 0 0 0 0 0 0 0 0 0 0 0 0 0
0 0 0 0 0 0 0 0 0 0 0 0 0 0 0 0 0 0 0 0 0 0 0 0 0 0 0 0 0 0 0 0 0 0 0 0 0 0 0 0 0 0 0
0 0 0 0 0 0 0 0 0 0 0 0 0 0 0 0 0 0 0 0 0 0 0 0 0 0 0 0 0 0 0 0 0 0 0 0 0 0 0 0 0 0 0
0 0 0 0 0 0 0 0 0 0 0 0 0 0 0 0 0 0 0 0 0 0 0 0 0 0 0 0 0 0 0 0 0 0 0 0 0 0 0 0 0 0 0
0 0 0 0 0 0 0 0 0 0 0 0 0 0 0 0 0 0 0 0 0 0 0 0 0 0 0 0 0 0 0 0 0 0 0 0 0 0 0 0 0 0 0
0 0 0 0 0 0 0 0 0 0 0 0 0 0 0 0 0 0 0 0 0 0 0 0 0 0 0 0 0 0 0 0 0 0 0 0 0 0 0 0 0 0 0
Height
5835 5836 5837 5838 5840 5841 5843 5845 5846 5848 5849 5850 5851 5852 5853 5855 5856 5857 5858 5859 5860 5861 5862 5863 5864 5864 5864 5865 5865 5865 5866 5866 5866 5866 5866 5865 5865 5865 5864 5863 5863 5862 5861
5830 5832 5833 5834 5836 5837 5839 5841 5842 5844 5846 5847 5848 5849 5850 5852 5853 5854 5856 5857 5858 5859 5860 5861 5862 5862 5863 5863 5863 5864 5864 5864 5865 5865 5865 5864 5864 5864 5863 5862 5861 5861 5860
5827 5828 5829 5830 5832 5833 5835 5836 5838 5840 5841 5843 5844 5846 5847 5848 5850 5851 5853 5854 5855 5856 5857 5859 5859 5860 5861 5861 5862 5862 5863 5863 5863 5863 5863 5863 5863 5862 5862 5861 5860 5859 5859
5822 5823 5824 5826 5827 5828 5830 5832 5833 5835 5837 5838 5840 5841 5843 5844 5846 5847 5849 5851 5852 5853 5854 5856 5857 5858 5859 5859 5860 5860 5861 5861 5861 5861 5861 5861 5861 5861 5860 5859 5858 5858 5857
5816 5817 5819 5820 5822 5823 5825 5826 5828 5830 5832 5833 5835 5837 5838 5840 5842 5843 5845 5847 5848 5850 5851 5852 5854 5855 5856 5856 5857 5858 5858 5859 5859 5859 5859 5859 5859 5859 5858 5857 5856 5856 5855
5809 5811 5813 5814 5816 5817 5819 5821 5823 5824 5826 5828 5830 5832 5834 5835 5837 5839 5840 5842 5844 5846 5848 5849 5850 5851 5853 5853 5854 5855 5855 5856 5856 5857 5857 5857 5857 5856 5856 5855 5854 5853 5852
5802 5804 5806 5807 5809 5811 5812 5814 5816 5818 5820 5822 5824 5826 5828 5830 5832 5834 5836 5838 5840 5842 5843 5845 5846 5848 5849 5850 5851 5851 5852 5853 5853 5854 5854 5854 5854 5854 5853 5852 5852 5851 5850
5794 5796 5798 5800 5802 5803 5805 5807 5809 5811 5813 5816 5818 5820 5822 5824 5826 5828 5830 5833 5835 5837 5839 5840 5842 5844 5845 5846 5847 5848 5849 5849 5850 5850 5851 5851 5851 5850 5850 5850 5849 5848 5847
5784 5786 5789 5791 5793 5795 5797 5799 5802 5804 5806 5808 5811 5813 5815 5817 5820 5822 5825 5827 5829 5831 5833 5835 5837 5839 5841 5842 5843 5844 5845 5846 5846 5847 5847 5847 5847 5847 5847 5846 5846 5845 5844
5774 5776 5779 5781 5784 5786 5788 5791 5793 5795 5798 5800 5803 5805 5808 5810 5812 5815 5818 5821 5823 5826 5828 5830 5832 5833 5835 5837 5839 5839 5840 5841 5842 5843 5843 5843 5843 5843 5843 5843 5842 5841 5840
5762 5764 5767 5770 5773 5775 5778 5780 5783 5786 5789 5791 5794 5797 5799 5802 5805 5808 5811 5814 5817 5819 5821 5824 5826 5828 5830 5832 5833 5834 5835 5836 5837 5838 5839 5839 5839 5839 5839 5839 5838 5838 5837
5749 5751 5754 5757 5760 5763 5766 5769 5772 5775 5778 5781 5784 5787 5791 5794 5797 5799 5803 5806 5809 5812 5815 5817 5819 5821 5823 5826 5828 5829 5830 5831 5832 5833 5834 5835 5835 5835 5835 5835 5834 5833 5832
5736 5738 5740 5743 5746 5750 5753 5757 5760 5763 5767 5770 5774 5777 5781 5784 5787 5790 5794 5797 5801 5804 5807 5810 5812 5815 5817 5819 5822 5823 5825 5826 5827 5828 5829 5830 5830 5830 5830 5830 5830 5829 5828
5721 5723 5725 5728 5731 5734 5738 5742 5746 5750 5754 5758 5762 5766 5769 5773 5777 5781 5785 5788 5792 5795 5799 5802 5805 5807 5810 5813 5815 5817 5819 5820 5822 5823 5823 5824 5825 5825 5825 5825 5825 5824 5823
5705 5707 5709 5712 5715 5718 5721 5726 5730 5735 5739 5744 5748 5752 5757 5762 5766 5770 5774 5778 5782 5786 5790 5793 5796 5799 5802 5805 5808 5810 5812 5814 5815 5817 5818 5818 5819 5819 5820 5820 5819 5819 5818
5688 5690 5692 5694 5697 5700 5704 5708 5713 5718 5723 5728 5733 5739 5743 5749 5754 5758 5763 5767 5772 5776 5780 5784 5787 5791 5794 5797 5800 5803 5805 5807 5809 5810 5811 5812 5813 5814 5814 5814 5814 5813 5812
5670 5672 5674 5676 5679 5682 5686 5690 5694 5699 5705 5711 5717 5723 5729 5734 5740 5745 5750 5756 5760 5765 5769 5773 5778 5781 5785 5788 5791 5795 5797 5799 5801 5803 5805 5806 5807 5807 5808 5808 5808 5807 5806
5652 5654 5656 5657 5659 5662 5666 5670 5674 5680 5686 5693 5700 5706 5713 5719 5725 5731 5737 5743 5748 5753 5758 5762 5767 5772 5776 5779 5782 5786 5788 5791 5793 5795 5797 5799 5800 5801 5801 5802 5801 5801 5800
5634 5635 5637 5639 5641 5643 5647 5651 5655 5660 5667 5674 5682 5689 5696 5702 5709 5716 5722 5729 5735 5740 5745 5751 5756 5761 5765 5769 5773 5776 5779 5782 5785 5787 5789 5791 5793 5794 5794 5795 5795 5794 5794
5619 5619 5619 5621 5623 5625 5628 5632 5636 5642 5649 5656 5663 5671 5678 5685 5692 5699 5706 5713 5719 5726 5732 5738 5744 5749 5754 5759 5762 5766 5770 5773 5776 5779 5781 5783 5785 5786 5787 5788 5788 5788 5787
5604 5604 5604 5604 5606 5608 5611 5614 5619 5625 5631 5638 5645 5653 5660 5667 5674 5682 5690 5697 5703 5710 5717 5724 5731 5736 5742 5747 5751 5755 5759 5763 5767 5770 5773 5775 5777 5778 5779 5780 5780 5780 5780
5591 5590 5589 5590 5591 5592 5595 5598 5603 5608 5615 5621 5628 5635 5642 5649 5656 5664 5672 5681 5688 5694 5702 5710 5717 5723 5730 5736 5741 5745 5748 5752 5756 5761 5764 5767 5768 5770 5771 5772 5773 5773 5772
5581 5578 5577 5576 5577 5578 5581 5584 5587 5592 5597 5604 5611 5617 5624 5631 5639 5647 5655 5663 5672 5679 5687 5696 5703 5710 5718 5724 5729 5734 5738 5742 5747 5752 5755 5758 5760 5762 5763 5764 5765 5765 5765
5571 5567 5565 5564 5564 5566 5567 5569 5572 5576 5582 5588 5595 5601 5607 5614 5622 5630 5639 5647 5655 5663 5672 5680 5688 5697 5704 5710 5716 5722 5728 5733 5737 5742 5746 5749 5751 5753 5754 5756 5756 5757 5756
5560 5557 5554 5552 5552 5553 5554 5555 5558 5562 5567 5572 5578 5584 5591 5598 5605 5614 5622 5630 5639 5647 5655 5663 5673 5681 5689 5697 5704 5710 5716 5721 5726 5731 5736 5739 5742 5744 5746 5747 5748 5748 5748
5549 5546 5543 5542 5541 5541 5541 5543 5545 5548 5552 5557 5562 5568 5575 5583 5591 5599 5607 5615 5624 5632 5640 5649 5658 5667 5676 5684 5691 5698 5704 5710 5716 5721 5726 5729 5732 5735 5737 5738 5739 5740 5740
Wind_Speed
20 21 21 22 22 22 21 20 20 20 19 19 19 18 17 17 16 15 14 13 12 11 9 9 8 7 7 6 6 6 5 5 5 6 6 7 7 8 8 8 9 9 10
22 22 22 22 22 23 23 22 22 21 21 21 21 20 19 19 18 17 16 15 14 13 12 11 10 9 9 8 8 7 7 7 7 7 8 8 8 9 9 9 10 10 11
24 23 23 23 24 24 24 24 24 24 23 23 23 22 21 21 20 19 19 18 17 15 14 13 12 11 10 10 9 9 9 9 9 9 9 9 10 10 10 11 11 12 12
27 26 26 26 26 26 26 26 26 26 25 25 25 24 24 23 22 22 21 20 19 18 16 15 14 13 13 12 11 11 11 11 11 11 11 11 11 11 12 12 12 13 13
30 29 29 29 29 28 28 28 28 28 28 28 27 27 26 25 24 24 23 22 21 20 19 18 16 15 14 14 13 13 13 13 13 13 12 13 13 13 13 13 13 14 14
33 32 32 32 32 31 31 31 31 31 31 30 30 29 29 28 27 26 25 24 23 22 21 21 19 18 16 16 15 15 15 14 15 15 14 14 14 14 14 14 14 15 16
36 36 35 35 35 35 34 34 33 33 33 33 32 31 31 31 29 28 27 26 25 24 24 23 22 20 19 18 17 17 16 16 16 16 16 16 16 16 16 16 16 16 17
38 38 38 38 38 38 37 36 36 36 35 36 35 35 34 33 32 31 29 28 27 26 26 25 24 23 22 20 20 19 18 18 18 17 17 18 17 17 17 17 17 18 18
41 41 41 41 41 41 40 39 39 39 38 38 38 37 37 36 35 34 32 31 30 28 27 26 26 25 24 22 22 21 20 20 19 19 19 19 19 19 19 19 19 19 20
45 45 45 44 44 44 44 43 42 42 41 41 40 40 40 39 39 37 36 34 33 31 30 28 28 27 26 25 24 23 22 22 21 20 20 20 20 20 20 20 20 21 21
48 48 48 48 48 48 47 47 46 45 45 44 44 43 43 42 41 40 39 37 36 34 32 31 30 29 28 27 26 25 24 24 23 22 22 22 22 21 21 21 21 22 23
51 51 52 51 51 51 51 50 49 49 48 48 47 46 46 45 44 43 42 41 39 37 36 34 33 32 31 30 28 27 26 26 25 24 24 23 23 23 23 23 23 23 24
53 54 54 55 55 54 54 54 53 52 51 51 51 50 49 48 47 46 45 44 42 40 38 37 36 34 33 32 30 30 29 28 27 26 25 25 25 25 25 24 24 25 25
54 55 57 57 58 58 58 57 57 56 55 54 54 53 52 51 50 49 48 47 45 43 42 40 39 37 36 35 33 32 31 30 29 28 27 27 27 26 26 26 26 26 27
55 56 58 59 60 61 61 61 60 59 58 58 57 56 55 55 54 52 51 50 48 46 45 43 41 40 39 38 36 35 34 33 32 31 30 29 28 28 28 28 28 28 28
56 57 58 60 61 63 63 63 63 62 61 61 60 59 59 57 57 56 54 53 51 50 47 46 44 42 41 40 39 37 36 35 34 33 32 31 30 30 29 29 29 29 29
56 57 58 60 61 63 64 65 65 65 64 64 63 62 60 59 59 57 57 55 53 52 51 49 47 45 44 43 41 39 38 37 35 34 33 32 32 31 31 30 30 30 31
56 57 58 59 61 63 64 65 66 66 65 65 65 64 62 61 60 60 59 58 56 55 54 52 50 47 46 45 43 42 40 39 37 36 35 34 33 32 32 31 32 32 32
54 56 57 57 59 61 62 64 65 65 65 65 65 65 64 63 62 61 61 60 59 58 56 55 53 50 48 46 45 44 43 41 39 38 37 36 35 34 33 33 33 32 32
51 52 53 54 56 57 59 62 65 64 63 63 64 65 66 66 65 63 63 63 62 60 59 57 55 53 51 49 47 46 45 43 41 40 39 38 36 36 35 34 33 33 33
47 48 50 51 53 54 56 58 61 63 62 62 62 63 66 67 66 65 64 64 64 63 61 60 58 56 53 51 50 48 47 44 43 42 41 39 38 37 36 35 34 34 34
44 45 48 48 49 51 52 54 57 61 62 61 62 62 64 67 67 66 65 66 65 64 63 61 61 58 55 54 51 50 49 46 45 43 41 40 39 38 37 36 35 35 35
42 44 46 47 47 47 49 52 55 58 60 61 61 61 62 65 65 66 66 65 65 64 64 63 62 61 57 56 53 52 51 49 46 44 42 40 40 39 38 37 36 36 36
42 43 43 45 45 45 48 49 52 54 57 58 58 60 60 62 63 64 67 66 65 64 65 65 63 62 59 57 55 53 52 50 47 45 43 42 41 41 40 38 37 36 36
41 42 42 42 44 44 46 47 50 53 55 56 57 59 60 60 61 63 65 65 64 64 65 66 64 63 61 58 56 55 53 51 49 47 45 43 42 41 40 39 38 37 36
41 41 40 41 43 44 45 45 47 48 51 53 55 57 59 60 60 61 63 65 64 63 65 66 65 62 60 59 57 56 54 52 50 47 45 44 42 41 40 40 38 37 36
Wind_Direction
251 250 249 249 249 249 248 246 244 241 239 237 237 237 237 236 237 239 242 245 250 256 262 265 266 269 273 277 281 283 286 293 301 308 314 321 322 321 323 327 329 331 333
253 252 252 251 250 250 250 248 246 245 243 241 240 240 240 240 239 240 242 244 248 253 257 260 263 265 267 269 272 275 277 281 288 296 302 309 313 314 314 316 319 322 324
255 253 253 252 251 251 251 250 248 247 245 244 243 243 242 242 241 241 243 245 248 250 253 256 260 262 263 265 266 269 272 276 281 288 293 299 305 307 308 308 311 314 318
255 254 253 252 252 252 251 250 249 249 248 246 245 245 244 244 243 243 244 245 247 248 250 253 256 258 260 263 265 266 268 272 278 283 287 291 297 301 302 304 307 309 313
254 253 253 252 252 252 251 250 249 249 249 248 247 246 246 245 245 245 245 246 247 247 249 251 253 256 258 260 263 265 265 268 274 279 283 285 289 294 297 301 303 306 308
254 253 252 252 252 252 251 251 250 250 249 249 249 249 249 247 246 246 247 247 247 249 250 251 252 254 256 258 261 264 265 266 271 276 279 281 284 288 292 296 300 302 305
255 254 253 253 252 252 252 251 251 250 250 249 249 248 249 249 248 247 247 248 248 249 250 251 252 254 254 256 260 264 265 265 269 273 277 279 282 285 288 292 296 299 303
256 255 254 253 252 252 252 252 252 251 250 250 250 249 249 249 249 248 248 248 249 250 250 251 252 253 254 255 257 261 264 265 267 271 274 278 279 282 286 289 292 297 301
257 256 255 254 253 252 251 251 252 251 251 250 250 249 248 248 249 249 249 249 249 250 251 251 251 252 254 254 256 259 262 264 266 269 272 276 278 280 283 287 290 294 298
258 257 255 254 254 252 252 251 251 251 250 250 249 249 248 248 248 248 249 249 250 250 251 251 251 251 252 253 254 257 260 263 265 268 271 274 277 279 282 285 289 292 296
259 257 256 255 254 253 252 251 251 250 250 250 249 249 248 248 248 249 249 249 249 250 251 251 251 252 252 252 252 255 258 261 263 266 269 272 275 278 281 284 288 291 295
259 258 257 256 255 253 252 251 250 250 250 249 249 249 248 248 248 248 249 249 249 250 251 251 251 251 252 253 252 254 256 259 261 264 267 270 273 276 280 283 286 290 293
258 257 257 256 255 254 253 252 251 250 250 249 249 248 248 248 247 247 248 248 249 249 250 251 251 252 252 253 253 254 255 257 260 262 265 268 271 274 277 281 284 288 292
259 258 257 256 256 255 254 253 252 250 249 249 248 248 247 247 247 247 247 247 248 249 249 250 250 251 252 253 253 254 255 257 259 261 264 267 269 272 275 279 282 287 291
260 258 257 256 256 255 254 253 251 250 249 248 247 247 247 246 246 246 247 247 247 247 248 249 250 250 251 252 253 253 255 257 258 260 262 265 268 271 273 277 281 285 289
261 259 258 257 256 255 254 252 251 250 248 247 246 245 245 245 245 245 245 246 246 246 247 248 248 249 250 251 252 253 254 256 258 259 261 264 266 270 272 275 279 283 287
263 260 259 258 256 254 253 251 250 249 247 246 245 244 244 244 243 243 244 244 245 245 245 246 247 248 248 250 251 252 253 254 257 258 260 262 265 268 272 275 278 282 286
265 263 260 259 256 255 253 251 249 248 246 244 244 243 243 243 242 242 243 243 243 243 244 244 245 246 247 248 249 250 251 253 255 257 259 262 264 267 271 274 277 281 284
268 264 261 259 257 255 253 251 248 246 245 244 243 243 242 241 241 241 241 241 241 242 243 243 243 244 245 247 248 249 250 252 254 255 258 261 263 267 270 273 277 280 283
270 266 262 260 258 255 253 250 247 245 244 243 243 242 241 241 241 240 239 240 239 240 240 241 241 242 242 245 247 248 249 250 252 254 257 260 262 266 268 272 275 279 282
272 267 264 262 258 255 253 251 247 245 244 243 242 242 241 240 240 238 238 238 237 237 238 239 240 240 240 242 245 246 248 249 251 253 256 259 262 265 267 270 274 278 281
275 270 267 265 261 257 254 251 248 245 245 243 242 242 241 239 238 237 237 237 236 235 236 237 239 238 238 240 243 245 246 247 249 252 255 258 261 263 265 268 272 276 280
278 274 270 267 264 259 256 253 249 246 246 244 242 242 241 238 237 235 234 235 235 235 235 236 237 237 237 239 240 243 246 247 248 251 254 257 261 263 264 266 270 275 279
282 278 274 269 265 261 258 254 251 248 246 244 242 241 240 237 235 234 233 234 234 235 234 234 235 236 236 237 239 242 244 247 248 250 252 256 260 262 264 265 268 273 277
286 281 276 270 265 263 261 257 253 250 246 245 242 240 238 236 235 234 234 234 235 236 235 233 234 234 234 236 238 240 242 244 247 249 251 255 258 261 263 264 267 271 275
288 284 279 273 268 265 262 257 253 250 245 244 242 240 237 235 234 233 234 234 234 235 234 233 233 233 234 236 237 238 241 243 246 248 250 253 257 260 262 263 266 269 274